EW0349 Weather Reports


time (UTC)temp
F
wind
direction
speed
knots
gust
knots
rain 1hr
in
rain 24hr
in
rain mn
in
humidity
%
barometer
mb
20260505101542 51 148 0.0 2.6 0.00 0.00 0.00 36 1014.4
20260505100034 51 136 0.0 0.9 0.00 0.00 0.00 34 1014.4
20260505094536 51 136 0.0 1.7 0.00 0.00 0.00 32 1014.4
20260505093031 51 136 0.0 1.7 0.00 0.00 0.00 27 1014.2
20260505091526 51 136 0.0 1.7 0.00 0.00 0.00 26 1014.1
20260505090025 51 136 0.0 0.9 0.00 0.00 0.00 23 1014.1
20260505084525 50 136 0.0 0.9 0.00 0.00 0.00 25 1014.2
20260505083023 50 136 0.0 3.5 0.00 0.00 0.00 27 1014.0
20260505081520 50 209 0.0 0.9 0.00 0.00 0.00 29 1013.9
20260505080018 50 210 0.0 1.7 0.00 0.00 0.00 31 1013.9
20260505074517 50 211 0.0 0.9 0.00 0.00 0.00 34 1013.9
20260505073014 50 211 0.0 0.0 0.00 0.00 0.00 42 1013.8
20260505071527 50 211 0.0 0.0 0.00 0.00 0.00 47 1013.6
20260505070008 51 211 0.0 0.0 0.00 0.00 0.00 51 1013.4
20260505064508 52 211 0.0 0.9 0.00 0.00 0.00 56 1013.3
20260505063007 52 212 0.0 0.9 0.00 0.00 0.00 58 1013.2
20260505061505 52 209 0.0 2.6 0.00 0.00 0.00 60 1013.1
20260505060011 53 205 0.0 3.5 0.00 0.00 0.00 61 1013.2
20260505054504 53 285 0.0 1.7 0.00 0.00 0.00 62 1013.2
20260505053003 53 223 0.0 2.6 0.00 0.00 0.00 63 1013.2
20260505051506 53 215 0.9 3.5 0.00 0.00 0.00 64 1013.1
20260505041604 56 183 0.9 3.5 0.00 0.00 0.00 67 1012.3
20260505040101 57 186 0.0 1.7 0.00 0.00 0.00 68 1012.1
20260505034559 58 245 0.0 1.7 0.00 0.00 0.00 69 1011.8
20260505034501 58 245 0.0 1.7 0.00 0.00 0.00 69 1011.8
20260505033100 59 280 0.9 1.7 0.00 0.00 0.00 69 1011.5
20260505031601 60 273 0.9 3.5 0.00 0.00 0.00 69 1011.3
20260505030058 61 286 0.9 3.5 0.00 0.00 0.00 69 1011.1
20260505024606 62 286 1.7 5.2 0.00 0.00 0.00 68 1010.8
20260505023104 64 273 0.0 3.5 0.00 0.00 0.00 67 1010.6
20260505021557 66 188 1.7 7.8 0.00 0.00 0.00 64 1010.6
20260505020058 68 185 0.9 5.2 0.00 0.00 0.00 63 1010.5
20260505014556 68 290 1.7 6.1 0.00 0.00 0.00 62 1010.5
20260505013116 70 221 0.9 6.1 0.00 0.00 0.00 61 1010.6
20260505011607 70 235 0.9 5.2 0.00 0.00 0.00 61 1010.7
20260505010110 70 193 0.9 7.0 0.00 0.00 0.00 61 1010.7
20260505004553 71 339 0.9 4.3 0.00 0.00 0.00 60 1010.8
20260505003101 71 196 1.7 6.1 0.00 0.00 0.00 60 1010.8
20260505001553 71 217 2.6 6.1 0.00 0.00 0.00 59 1010.8
20260505000100 71 193 1.7 5.2 0.00 0.00 0.00 58 1010.9
20260504234550 70 194 1.7 5.2 0.00 0.00 0.00 60 1010.9
20260504233055 71 184 1.7 6.1 0.00 0.00 0.00 59 1011.1
20260504231547 70 278 1.7 7.0 0.00 0.00 0.00 61 1011.2
20260504230051 70 184 1.7 5.2 0.00 0.00 0.00 59 1011.3
20260504224546 70 219 1.7 6.1 0.00 0.00 0.00 60 1011.4
20260504223054 69 238 1.7 4.3 0.00 0.00 0.00 60 1011.7
20260504221542 68 215 0.9 5.2 0.00 0.00 0.00 61 1011.8
20260504220046 68 219 1.7 7.0 0.00 0.00 0.00 60 1012.1
20260504214547 68 187 0.9 4.3 0.00 0.00 0.00 60 1012.1
20260504213042 67 238 0.9 6.1 0.00 0.00 0.00 60 1012.3
20260504211538 67 83 0.9 7.0 0.00 0.00 0.00 61 1012.5
20260504210034 66 178 1.7 7.0 0.00 0.00 0.00 62 1012.6
20260504204532 65 180 0.9 4.3 0.00 0.00 0.00 62 1012.8
20260504203034 63 146 1.7 6.1 0.00 0.00 0.00 63 1012.9
20260504201528 63 187 0.9 4.3 0.00 0.00 0.00 64 1013.0
20260504200027 63 15 0.9 5.2 0.00 0.00 0.00 63 1013.1
20260504194525 62 188 2.6 7.8 0.00 0.00 0.00 62 1013.1
20260504193026 61 223 2.6 7.0 0.00 0.00 0.00 62 1013.2
20260504191525 60 180 0.9 6.1 0.00 0.00 0.00 63 1013.3
20260504190020 59 289 1.7 5.2 0.00 0.00 0.00 63 1013.5
20260504184520 58 199 0.9 7.0 0.00 0.00 0.00 62 1013.6
20260504183020 57 231 1.7 7.0 0.00 0.00 0.00 62 1013.5
20260504181526 57 275 1.7 7.8 0.00 0.00 0.00 62 1013.5
20260504180019 56 194 1.7 8.7 0.00 0.00 0.00 62 1013.5
20260504174518 56 169 0.9 6.1 0.00 0.00 0.00 61 1013.4
20260504173017 56 297 2.6 6.1 0.00 0.00 0.00 61 1013.4
20260504171516 56 267 0.9 7.0 0.00 0.00 0.00 60 1013.4